Hourly Weather Roundup
Issued by NWS Central Illinois

Home | Current Version | Previous Version | Text Only | Print | Product List | Glossary On
Versions: 1 2 3 4 5 6 7 8 9 10 11 12 13 14 15 16 17 18 19 20 21 22 23 24 25 26 27 28 29 30 31 32 33 34 35 36 37 38 39 40 41 42 43 44 45 46 47 48 49 50
000
NZUS43 KILX 281210
HWRILX

AREA WEATHER ROUNDUP
NATIONAL WEATHER SERVICE, LINCOLN IL
700 AM CDT FRI AUG 28 2015


CITY           SKY/WX    TMP DP  RH WIND       PRES   REMARKS
BLOOMINGTON    CLOUDY    60  59  97 S5        30.14R
6HR MIN TEMP:  59; 6HR MAX TEMP:  62;

CHAMPAIGN      PTCLDY    60  58  92 S5        30.14R
6HR MIN TEMP:  57; 6HR MAX TEMP:  62;

DANVILLE       CLEAR     56  56  99 CALM      30.13R FOG
6HR MIN TEMP:  54; 6HR MAX TEMP:  57;

DECATUR        MOCLDY    60  56  86 CALM      30.13R
6HR MIN TEMP:  56; 6HR MAX TEMP:  60;

EFFINGHAM      PTCLDY    58  56  93 E3        30.16R FOG
FLORA          CLEAR     55  54  96 CALM      30.15R
6HR MIN TEMP:  54; 6HR MAX TEMP:  58;

GALESBURG      CLOUDY    58  56  94 CALM      30.12R
JACKSONVILLE   PTCLDY    62  59  90 SE6       30.10S
6HR MIN TEMP:  57; 6HR MAX TEMP:  62;

LACON          CLOUDY    59  56  91 SE5       30.11R
6HR MIN TEMP:  57; 6HR MAX TEMP:  61;

LAWRENCEVILLE  CLEAR     58  57  97 E3        30.16R FOG
6HR MIN TEMP:  57; 6HR MAX TEMP:  62;

LITCHFIELD     PTCLDY    60  57  88 SE6       30.13S
$$


CITY           SKY/WX    TMP DP  RH WIND       PRES   REMARKS
LINCOLN        MOCLDY    59  56  92 CALM      30.13R FOG
6HR MIN TEMP:  58; 6HR MAX TEMP:  60;

MACOMB         CLOUDY    56  56  98 CALM      30.12R
MATTOON        PTCLDY    60  57  89 S6        30.14R
6HR MIN TEMP:  56; 6HR MAX TEMP:  62;

MT CARMEL AP   CLEAR     52  52 100 CALM      30.16R
OLNEY-NOBLE AP CLEAR     55  54  94 CALM      30.15S FOG
PARIS          CLEAR     58  57  97 CALM      30.16R
6HR MIN TEMP:  55; 6HR MAX TEMP:  61;

PEORIA         CLOUDY    63  58  83 S5        30.12R
6HR MIN TEMP:  62; 6HR MAX TEMP:  66;

PONTIAC        CLOUDY    59  59  98 SE3       30.14R FOG
RANTOUL        PTCLDY    60  58  94 SE3       30.13F FOG
6HR MIN TEMP:  58; 6HR MAX TEMP:  64;

ROBINSON         N/A     53  52  97 CALM      30.17R FOG
6HR MIN TEMP:  52; 6HR MAX TEMP:  56;

SPRINGFIELD    MOCLDY    59  57  93 CALM      30.12F
6HR MIN TEMP:  57; 6HR MAX TEMP:  61;

TAYLORVILLE    MOCLDY    57  55  94 SE5       30.13S
$$

...REGIONAL REPORTS...


CITY           SKY/WX    TMP DP  RH WIND       PRES   REMARKS
CHICAGO O`HARE MOCLDY    61  56  83 CALM      30.13R
KANKAKEE       PTCLDY    58  56  94 CALM      30.14S
MOLINE         CLOUDY    59  56  89 CALM      30.12R
MOUNT STERLING MOCLDY    58  57  97 S5        30.09S
MOUNT VERNON   CLEAR     57  52  82 CALM      30.14R
PITTSFIELD     PTCLDY    59  57  95 SE3       30.11S
QUINCY         MOCLDY    62  57  83 S9        30.07F
ROCKFORD       LGT RAIN  61  56  83 CALM      30.14R
$$


CITY           SKY/WX    TMP DP  RH WIND       PRES   REMARKS
BURLINGTON     CLOUDY    61  58  90 CALM      30.10R
CEDAR RAPIDS   CLOUDY    60  59  96 SE6       30.06F
DES MOINES     LGT RAIN  64  60  87 E12       29.98F
KIRKSVILLE     CLOUDY    62  58  86 SE6       30.04F
OTTUMWA        CLOUDY    60  59  96 E8        30.02F
ST LOUIS       MOCLDY    64  58  80 E7        30.12R
$$


CITY           SKY/WX    TMP DP  RH WIND       PRES   REMARKS
TERRE HAUTE    CLEAR     57  55  93 CALM      30.16R
EVANSVILLE     CLEAR     58  56  93 NE3       30.16R FOG
INDIANAPOLIS   PTCLDY    60  56  86 SE3       30.16R
LAFAYETTE      CLEAR     58  55  90 CALM      30.16R
MADISON        CLOUDY    60  55  83 S5        30.12R
MILWAUKEE      MOCLDY    60  56  86 SW3       30.15R FOG
$$




USA.gov is the U.S. government's official web portal to all federal, state and local government web resources and services.